Location: Rock River
(41.7433°N, 105.9768°W)
Time: 07:20:10
(UTC+00:00)

Vanguard 1 - Pass Details

Date: 30 May 2022
Orbit: 649 x 3833 km, 34.2° (Epoch: 04 July)

Event Time Altitude Azimuth Distance (km) Brightness Sun altitude
Rises 13:04:20 0° 282° (WNW) 6,884 13.8 14.8°
Reaches altitude 10° 13:08:47 10° 276° (W) 6,195 13.6 15.6°
Maximum altitude 13:27:53 43° 214° (SW) 4,709 13.4 19.1°
Drops below altitude 10° 13:47:59 10° 151° (SSE) 6,434 14.5 22.8°
Sets 13:52:49 0° 145° (SE) 7,152 14.8 23.7°
